Regional Weather Roundup
Issued by NWS Midland/Odessa, TX

Skip options and go directly to product.
Home | Oldest Version | Previous Version | Current Version | All | Graphics & Text | Save Text | Print | Product List | Glossary On

Skip product version selection by date and time.   
098
ASUS44 KMAF 301410
RWRMAF
MIDLAND AREA WEATHER ROUNDUP
NATIONAL WEATHER SERVICE MIDLAND TX
900 AM CDT THU JUL 30 2015

...IN SOUTHWEST TEXAS AND SOUTHEAST NEW MEXICO...

CITY           SKY/WX    TMP DP  RH WIND       PRES   REMARKS
ALPINE         SUNNY     74  57  54 S3        30.33S
ANDREWS        FAIR      80  57  44 E3        30.22R
ARTESIA        MOSUNNY   72  64  78 N18       30.27S
BIG SPRING     SUNNY     78  60  53 S8        30.21R
CARLSBAD       SUNNY     74  63  68 NW21      30.24R
DRYDEN           N/A     81  63  54 VRB5      30.13R
FORT STOCKTON  SUNNY     78  57  48 S6        30.18R
GUAD PASS      SUNNY     66  60  81 SW9       30.38R
HOBBS          PTSUNNY   73  64  73 N13       30.27R
MARFA          MOSUNNY   73  59  60 CALM      30.32R
MIDLAND AIRPK  SUNNY     81  58  45 S5        30.20R
MIDLAND INTL   SUNNY     80  58  46 SE7       30.19R
ODESSA         SUNNY     82  57  42 S7        30.20R
PECOS          SUNNY     79  55  44 SE6       30.16S
PRESIDIO       FAIR      82  57  42 MISG      30.16R
SEMINOLE       SUNNY     78  60  53 N6        30.25R
SNYDER         SUNNY     80  63  56 S7        30.19S
WINK           MOSUNNY   81  57  43 SE10      30.16R
$$
...OTHER STATIONS IN TEXAS...

CITY           SKY/WX    TMP DP  RH WIND       PRES   REMARKS
ABILENE        SUNNY     83  67  58 S6        30.15R
AMARILLO       PTSUNNY   70  64  81 NW13G21   30.30S
AUSTIN         MOSUNNY   81  71  71 CALM      30.08S
BROWNSVILLE    SUNNY     81  79  94 SE6       30.05R
CORPUS CHRISTI PTSUNNY   82  76  81 CALM      30.07R
DALLAS FTW     SUNNY     90  66  45 CALM      30.09R
DEL RIO        SUNNY     81  69  67 E12       30.09R
EL PASO        LGT RAIN  68  66  93 N10       30.27S
HOUSTON INT    PTSUNNY   83  75  77 W5        30.06R
LUBBOCK        PTSUNNY   75  66  73 N9        30.25R
SAN ANGELO     SUNNY     81  68  64 S6        30.15R
SAN ANTONIO    MOSUNNY   80  71  74 SW5       30.11R
WACO           SUNNY     86  68  54 NW3       30.09R
WICHITA FALLS  NOT AVBL
$$
...OTHER LOCATIONS IN NEW MEXICO...

CITY           SKY/WX    TMP DP  RH WIND       PRES   REMARKS
ALAMAGORDO     CLOUDY    68  63  83 SE3       30.34R
ALBUQUERQUE    CLOUDY    67  59  75 CALM      30.39R
CANNON AFB     CLOUDY    65  62  90 N14       30.31F
CLOVIS         PTSUNNY   66  63  88 N17       30.33S
HOLLOMAN AFB   NOT AVBL
ROSWELL        MOSUNNY   72  62  71 N16       30.28R
RUIDOSO          N/A    N/A N/A N/A MISG        N/A
SANTA FE       CLOUDY    62  58  86 N3        30.45S
TRUTH OR CONSE CLOUDY    66  63  90 NE9       30.34R
TUCUMCARI      LGT RAIN  65  62  90 N7        30.34F
$$

USA.gov is the U.S. government's official web portal to all federal, state and local government web resources and services.